Theta_e
285 284 285 286 287 288 288 287 287 285 287 285 284 286 289 288 285 282 288 289 287 289 292 291 292 292 292 292 292 292 292 291 291 289 289 289 289 290 289 289 288 288 287 287 287 287 287 286 285 285 285 286 286 286 286 285 285 285 285 285 285 284 284 283 282 281 279 279 279 278 277 276 275 275 274 274 274 274 273 273 273 273 272 272 272 272 272
285 284 283 285 286 284 285 287 289 289 287 286 287 287 288 287 287 289 289 287 288 291 292 293 293 294 294 293 291 290 290 290 290 290 289 289 289 289 289 289 289 289 288 288 287 287 286 285 285 285 285 285 286 285 285 285 285 285 285 285 284 284 283 282 281 280 279 278 277 276 276 275 274 274 273 273 273 272 272 272 272 272 272 272 272 271 271
283 281 283 284 284 285 284 286 288 288 287 286 287 288 287 287 287 288 288 286 286 291 291 293 292 291 291 290 289 290 291 291 290 289 289 290 290 290 290 290 290 289 288 288 287 287 286 285 285 285 285 285 286 285 285 283 283 284 285 284 284 283 282 280 279 278 278 277 276 275 275 274 273 273 272 272 272 271 271 271 271 270 271 271 271 271 270
282 279 282 280 282 283 282 285 287 285 284 284 285 286 289 286 284 286 286 285 286 290 291 293 290 290 290 291 291 290 290 290 290 289 290 290 290 290 290 290 290 289 288 288 287 286 286 286 286 285 285 285 284 284 284 284 284 284 284 283 282 282 280 279 278 277 276 276 275 274 273 272 271 271 270 270 270 270 270 270 270 270 270 270 270 270 270
281 278 282 281 282 282 281 283 286 287 286 288 288 288 288 288 289 285 283 285 290 290 291 290 289 289 290 291 291 291 291 291 290 289 290 290 290 290 290 289 289 289 288 288 288 287 286 286 285 285 286 285 284 285 284 284 283 282 282 282 281 280 278 277 276 276 276 275 274 272 272 271 270 269 269 269 269 268 268 269 269 269 269 269 269 269 269
278 276 278 282 280 275 277 288 291 291 287 287 285 285 287 288 289 287 290 290 289 288 288 289 289 288 289 290 292 293 292 291 289 289 289 290 290 290 290 290 289 290 290 290 289 289 288 287 287 286 286 285 285 285 284 283 281 281 281 280 280 278 277 276 275 275 274 273 272 271 270 269 269 269 268 268 268 268 268 268 268 268 268 267 268 268 268
276 277 279 278 273 276 285 284 284 285 289 289 288 288 288 288 288 289 288 288 288 289 289 290 291 291 290 287 287 287 288 289 289 288 287 288 288 288 288 288 289 290 290 290 290 289 289 288 287 286 285 286 285 283 282 281 281 280 280 279 278 277 276 275 274 274 273 272 271 270 269 268 268 268 268 268 267 268 268 268 267 267 267 267 266 266 266
278 276 278 271 274 284 284 283 281 281 285 286 286 284 286 287 287 288 288 289 289 289 289 289 289 287 285 284 284 285 286 287 288 288 288 288 288 287 288 288 289 289 289 289 289 288 289 287 286 286 286 285 284 282 281 280 280 280 279 278 277 276 275 274 273 273 272 271 270 269 269 268 267 268 267 267 267 267 267 267 267 266 266 266 265 265 265
275 277 277 277 283 282 284 284 281 282 283 283 283 280 284 286 287 287 287 288 288 288 288 287 283 282 283 284 285 286 285 286 287 289 289 289 288 288 288 288 288 289 289 288 288 288 287 287 286 285 285 283 282 280 279 279 278 278 277 277 276 275 275 274 273 273 272 271 270 269 269 268 267 267 267 266 266 267 266 266 266 266 265 265 265 264 263
283 278 276 277 276 273 279 286 284 287 288 288 287 285 282 283 285 287 287 286 287 287 286 284 283 283 283 282 285 287 286 286 286 286 286 285 286 287 287 286 286 286 286 286 286 286 286 285 285 285 282 282 280 278 278 277 277 276 276 277 276 275 275 274 273 272 272 270 269 268 268 267 267 267 267 267 266 265 265 265 265 265 264 264 264 264 263
282 278 275 275 273 277 285 284 281 282 282 285 284 282 278 282 280 285 286 286 287 287 285 282 283 283 280 281 285 287 285 285 285 285 285 285 285 286 285 285 284 284 284 285 285 285 285 283 284 282 281 280 279 278 277 276 276 276 276 277 276 275 274 273 272 271 270 269 269 267 267 267 265 265 265 265 265 264 264 264 264 264 264 263 263 263 263
281 279 277 275 279 279 284 281 280 281 282 285 285 274 275 281 280 283 285 286 287 286 285 282 282 282 280 282 286 286 286 285 284 284 284 284 283 283 283 283 285 284 283 282 282 283 283 283 282 280 279 279 278 278 276 276 275 276 276 277 276 275 274 272 271 269 268 267 267 266 266 265 264 264 265 264 263 264 264 264 264 264 263 263 261 262 262
280 281 278 280 281 284 282 281 281 280 282 284 277 273 279 281 280 282 285 286 287 286 282 283 281 283 287 286 285 282 282 282 282 282 283 283 283 283 282 282 283 282 282 283 282 283 283 282 279 279 278 278 278 277 276 275 275 276 277 277 275 273 272 270 269 268 267 266 265 265 265 264 264 263 264 264 263 262 262 263 262 262 261 261 261 261 262
279 280 278 278 282 286 282 281 281 282 282 274 275 283 283 282 281 282 284 285 285 284 283 283 285 287 285 281 282 282 282 284 284 283 282 281 281 281 281 281 282 282 281 282 282 281 282 279 277 277 278 278 278 277 275 275 276 278 276 274 273 271 270 269 267 266 265 265 264 263 262 262 262 262 262 262 262 261 262 262 260 259 260 260 261 261 262
279 278 276 276 273 282 281 281 280 281 278 281 283 281 281 282 283 281 281 284 284 284 283 284 285 284 282 283 282 283 283 282 282 282 282 282 282 281 280 280 281 281 281 281 281 281 279 277 276 276 277 277 277 276 274 276 277 276 273 272 271 270 269 267 265 264 263 262 262 261 260 260 260 261 261 260 259 259 259 259 259 259 259 260 260 261 262
274 276 273 275 282 282 283 283 280 282 284 287 284 285 282 281 281 281 282 282 283 283 284 283 283 283 282 281 282 282 282 281 281 280 281 282 282 282 282 282 281 280 281 281 280 280 277 275 275 276 276 277 276 275 275 278 274 272 271 270 269 268 266 265 263 262 261 260 260 260 260 260 260 260 260 259 259 260 260 260 261 261 262 262 261 261 261
279 278 282 282 281 283 284 286 286 287 286 285 285 286 285 283 282 281 283 283 282 282 283 283 283 282 282 282 283 282 283 283 282 282 282 282 282 282 282 281 280 279 281 280 280 278 276 274 274 274 276 277 275 274 277 275 271 270 269 267 266 265 264 263 262 261 260 260 260 259 259 260 260 260 259 258 260 261 259 260 261 261 261 261 261 261 261
280 279 280 280 280 281 283 284 283 284 285 282 282 284 284 284 285 282 283 283 282 282 282 282 282 282 283 282 282 282 282 283 283 282 282 281 281 281 281 280 278 278 279 280 279 277 275 273 273 273 274 276 275 276 276 272 271 268 266 265 265 264 263 262 261 260 259 258 258 258 258 259 260 261 261 260 261 261 261 261 260 260 260 261 260 261 261
277 275 279 280 282 282 282 284 284 283 282 282 282 282 284 286 283 282 283 284 283 282 281 282 282 282 282 282 282 282 282 282 282 281 281 281 281 280 279 280 278 277 277 277 277 276 275 273 272 272 272 274 276 276 271 270 268 266 265 265 264 263 261 261 260 259 260 261 260 258 258 259 260 260 260 260 260 260 261 261 260 260 260 260 261 261 262
276 276 278 278 277 278 280 282 283 283 285 283 282 283 283 283 282 282 282 282 281 281 280 281 282 283 283 282 282 282 281 281 281 281 281 281 281 280 280 281 278 277 277 277 277 276 276 275 272 271 271 271 273 271 269 268 266 265 264 264 264 262 261 261 261 260 261 260 260 261 260 260 261 260 260 260 260 260 261 261 261 261 261 261 261 262 262
277 275 277 277 278 280 280 280 280 283 284 285 283 282 281 281 281 280 280 281 282 281 282 282 282 281 282 282 282 282 282 281 281 281 281 281 281 281 280 278 276 277 277 276 277 277 277 277 273 270 270 270 271 268 268 266 264 264 264 263 263 262 261 261 261 260 261 260 261 262 261 259 260 261 261 261 260 260 260 260 261 261 261 261 262 262 263
274 275 277 278 275 276 280 281 282 281 282 282 283 282 280 280 281 282 281 280 280 281 282 282 281 280 281 282 281 281 281 282 282 281 281 281 280 280 280 279 276 276 277 277 277 277 278 277 273 271 270 270 268 267 266 264 264 264 264 263 262 261 260 261 261 260 260 260 260 260 260 261 259 259 260 262 261 260 260 263 265 267 266 262 263 263 263
276 280 280 281 282 282 283 284 284 283 283 282 281 281 282 282 282 282 282 281 280 279 279 280 280 281 281 282 282 281 281 281 281 281 281 280 280 279 278 276 275 274 276 275 276 276 277 275 272 271 270 269 266 266 265 264 264 265 263 263 263 262 259 261 261 261 261 260 260 260 260 260 260 260 260 261 265 266 266 266 267 268 269 270 270 270 268
280 281 281 281 281 280 282 283 282 282 283 282 282 283 283 283 283 282 282 282 282 281 281 279 280 281 281 282 282 281 281 281 281 280 280 280 281 280 279 277 276 274 274 274 274 274 276 275 273 270 269 268 265 264 264 263 264 264 263 264 264 263 261 261 260 260 261 260 259 259 259 259 259 259 260 261 262 264 265 265 266 267 267 267 268 268 268
281 282 281 281 282 282 284 283 283 283 282 282 282 282 282 282 283 283 282 281 282 282 282 281 280 280 280 281 281 280 281 281 281 280 280 279 279 278 278 276 275 275 275 275 275 276 276 274 272 270 268 267 265 263 262 262 262 263 262 264 264 263 261 260 260 260 260 260 260 259 258 258 258 258 259 259 261 262 262 263 263 265 265 266 266 266 267
284 282 281 280 280 281 282 281 281 281 279 280 281 281 282 281 283 282 281 282 282 282 281 282 281 280 279 279 280 280 280 280 280 279 279 278 277 276 275 275 275 275 276 276 275 275 274 272 271 269 267 267 264 262 261 261 261 262 262 263 263 262 261 260 261 260 260 260 260 260 259 259 259 258 259 259 259 259 260 260 260 261 263 263 264 265 265
282 282 280 278 279 280 280 279 281 284 282 280 281 282 282 282 280 281 281 280 280 281 280 281 281 281 279 279 278 279 279 279 278 277 278 277 277 277 276 276 276 276 274 274 274 272 271 270 268 267 267 266 263 262 260 260 260 260 260 261 261 259 258 259 261 261 261 261 260 259 259 258 258 258 258 258 258 257 258 258 258 258 259 259 261 263 263
281 281 282 279 279 280 281 281 282 283 282 279 280 280 281 280 278 276 276 278 278 277 277 277 277 276 276 278 277 276 276 275 276 276 276 276 277 278 277 276 274 273 272 271 271 269 267 267 266 266 266 264 261 260 259 259 259 259 259 259 259 260 259 259 260 261 261 260 260 259 259 258 258 259 259 258 258 258 258 257 257 256 257 258 258 260 263
280 281 281 283 283 284 283 280 281 280 280 280 279 280 277 276 276 276 277 279 280 279 279 278 276 276 277 278 277 276 277 277 276 276 276 277 276 274 272 270 269 268 268 268 268 266 265 265 265 265 265 261 259 259 258 258 259 259 259 259 259 260 259 260 260 261 260 259 259 259 259 258 258 258 258 258 258 258 257 257 256 256 257 257 257 258 261
282 282 281 281 282 282 281 280 281 280 279 278 276 276 276 277 276 277 278 278 279 278 279 280 278 277 276 275 275 275 275 275 276 276 275 275 273 270 266 265 263 263 264 264 265 264 264 264 264 264 263 258 258 257 258 258 259 259 259 259 259 260 260 259 259 259 258 258 257 257 258 258 258 258 258 257 257 257 256 256 256 256 256 256 257 257 257
283 280 279 279 278 278 278 279 280 281 280 277 277 277 276 275 277 278 279 279 278 278 278 278 277 277 274 274 275 275 275 276 276 275 273 272 269 266 264 265 270 271 270 269 267 264 263 263 263 264 261 257 257 257 257 258 259 258 259 258 258 259 259 259 259 258 258 257 257 257 257 257 257 257 256 257 256 256 256 256 256 256 256 256 256 256 257
279 275 275 276 277 277 276 277 278 278 279 278 275 276 277 275 274 275 277 278 277 277 277 276 275 276 276 277 275 274 273 272 272 271 270 267 263 262 262 264 267 267 266 264 264 263 262 262 262 262 257 257 256 257 258 258 258 258 258 257 258 258 259 259 259 259 257 257 257 257 257 257 257 256 256 256 256 256 256 255 255 255 255 255 256 256 257
275 274 274 275 273 271 274 276 276 277 278 276 277 278 278 278 278 278 278 279 278 277 277 276 277 277 276 275 272 271 271 269 267 266 264 264 263 261 260 261 262 260 261 261 261 261 261 261 262 258 256 256 256 257 258 258 258 258 258 258 258 259 258 259 259 259 257 257 257 257 257 256 257 256 256 256 256 256 256 255 255 255 255 255 256 256 257
280 280 281 281 280 279 278 278 278 278 279 280 280 279 278 277 277 277 278 277 277 275 275 276 276 274 272 272 271 269 266 267 271 272 269 267 263 260 259 259 257 256 257 257 259 261 262 261 259 257 257 256 256 257 258 258 258 259 258 258 258 257 258 258 258 259 257 257 257 256 256 256 256 256 255 255 255 255 255 255 255 255 255 256 256 256 257
283 283 283 283 282 282 282 282 281 280 279 278 278 276 277 277 276 276 276 276 275 276 275 273 271 272 270 268 268 267 266 269 271 270 267 265 262 258 257 255 255 256 256 256 257 259 259 258 258 257 256 256 256 257 258 258 258 258 257 257 257 257 257 258 258 257 257 257 256 256 255 255 255 255 255 255 255 255 255 255 255 255 255 255 256 256 256
280 280 281 281 280 279 279 279 280 280 279 278 278 276 274 274 273 273 273 272 270 269 270 270 269 266 265 266 266 266 266 266 265 263 262 259 258 257 256 256 256 255 256 256 256 257 257 257 257 257 257 257 257 257 257 258 258 257 256 256 256 256 256 256 256 256 256 256 255 255 255 255 254 254 254 255 255 255 255 255 255 255 255 255 255 255 255
278 279 280 280 280 276 276 277 270 268 271 271 271 270 268 266 267 263 262 262 262 262 260 263 265 266 267 265 264 262 261 262 264 263 261 257 258 257 256 255 255 257 257 259 258 257 257 257 257 257 258 258 258 257 257 257 257 256 255 256 256 255 255 255 255 255 255 255 254 254 254 254 254 254 254 254 255 255 255 254 254 254 255 255 255 255 255
270 269 270 268 264 265 260 254 253 258 261 259 255 256 258 257 256 256 257 256 255 257 260 262 263 262 261 260 259 257 256 256 257 257 257 256 257 256 255 256 258 258 259 260 257 256 257 257 256 257 258 258 258 257 256 256 255 255 256 256 256 255 255 255 254 254 254 254 254 254 254 254 254 254 254 254 254 254 254 254 254 254 254 255 255 254 255
266 263 261 259 257 256 255 255 252 251 254 257 255 255 256 255 254 254 256 256 255 256 258 258 258 259 259 259 259 257 256 255 256 255 255 254 256 256 257 257 257 257 257 254 255 257 257 257 257 258 258 258 257 257 256 255 255 256 256 255 255 255 255 255 254 254 254 253 253 253 253 253 253 253 254 254 254 253 253 253 254 254 254 254 254 254 255
258 256 255 256 256 255 254 253 252 251 251 252 253 253 253 254 255 255 255 255 255 254 256 258 260 261 258 257 256 255 254 255 255 255 254 255 255 255 255 254 253 253 254 255 256 257 257 257 257 258 258 258 258 257 256 255 255 255 255 255 255 255 255 254 254 254 254 253 253 253 253 252 253 253 253 253 253 253 253 253 253 253 254 254 254 254 254
252 252 253 253 253 253 253 252 251 251 250 251 252 251 252 253 254 256 255 254 254 254 253 256 257 256 254 254 253 252 252 253 253 253 254 255 255 257 258 257 255 255 255 256 256 257 257 257 257 258 258 258 257 257 256 255 256 256 256 255 255 255 254 254 254 254 254 253 253 253 253 253 253 253 253 253 253 253 253 253 253 253 253 253 254 254 253
252 252 252 252 252 251 251 251 252 251 251 250 250 251 252 253 254 253 253 253 253 253 253 253 254 253 252 251 251 251 251 252 252 252 253 255 256 258 258 256 253 253 255 255 256 256 257 256 257 256 256 256 256 255 256 256 256 256 255 255 255 255 254 254 254 254 254 254 253 253 253 253 253 253 253 253 253 253 253 252 253 253 253 253 253 253 253
251 251 251 251 252 251 252 252 250 250 250 250 249 249 250 251 251 251 251 251 251 251 251 251 252 252 252 251 251 251 252 252 252 252 252 251 250 251 255 255 254 254 255 256 256 257 257 257 256 256 255 255 256 255 255 256 256 255 255 255 254 254 254 254 254 254 253 253 253 252 252 252 252 252 252 252 252 252 252 252 252 252 253 253 252 252 252
250 250 251 251 250 250 250 250 250 251 250 249 249 249 249 249 249 250 250 250 250 250 250 251 251 250 250 251 252 253 253 254 255 255 256 255 254 252 251 253 254 255 255 256 256 256 256 256 256 255 254 255 255 255 256 256 255 255 255 254 254 254 254 253 253 253 253 253 253 253 252 251 251 252 252 252 252 252 252 252 253 253 253 252 252 252 252
250 249 249 249 250 250 251 251 250 250 249 249 249 248 248 248 248 249 250 250 250 250 250 250 250 251 251 252 252 252 253 253 254 256 256 256 256 255 252 253 255 255 255 255 256 256 255 255 255 255 255 255 255 255 256 256 256 255 255 254 254 254 254 253 253 253 253 252 252 253 252 252 252 252 252 252 251 252 252 252 252 252 252 252 252 252 252
249 249 249 250 249 249 249 250 251 251 251 251 250 249 247 247 248 248 248 249 249 248 248 249 249 249 249 249 248 248 249 251 249 249 252 254 256 255 253 253 255 255 255 255 256 255 255 255 255 256 256 256 255 256 256 256 256 256 255 254 254 253 253 253 253 253 253 252 252 252 252 252 252 252 252 252 252 252 252 252 252 252 252 252 252 252 253
249 249 249 248 248 249 249 250 250 251 251 252 251 250 248 246 247 248 246 246 247 246 247 247 246 246 246 248 251 254 254 253 253 253 252 252 252 254 255 254 254 255 255 255 256 255 255 255 255 255 255 255 255 256 255 255 255 255 255 254 254 254 254 254 253 253 253 253 252 252 252 252 252 252 251 251 251 251 251 251 252 252 253 252 252 252 252
249 249 249 248 248 248 249 250 250 250 250 250 250 249 248 246 246 246 247 247 247 247 247 246 246 245 245 246 246 248 251 255 255 254 252 251 251 250 252 254 255 255 255 255 255 255 254 255 255 255 255 255 255 255 255 255 255 254 254 254 254 253 253 253 253 253 253 252 251 251 251 252 252 252 252 251 251 251 251 251 251 252 252 252 252 252 252
248 248 247 247 248 250 250 250 250 250 249 248 248 249 247 247 248 249 249 249 249 250 250 247 247 247 247 248 249 251 250 251 253 254 252 250 252 252 253 255 256 255 255 255 253 254 255 255 255 255 255 255 256 255 255 255 254 254 253 254 253 253 253 253 253 253 253 252 252 251 251 251 251 251 251 251 251 251 251 251 251 251 252 252 252 252 252
249 250 250 250 250 250 251 252 251 250 249 249 250 249 248 250 253 251 251 251 251 251 252 251 251 250 249 250 250 250 250 251 253 253 253 253 252 254 255 254 255 255 255 255 253 254 254 253 254 254 254 255 255 255 255 254 254 253 253 253 253 253 253 252 252 252 252 251 251 251 251 251 251 251 251 251 251 252 252 252 252 251 251 251 251 251 252
250 249 249 249 248 247 246 249 250 249 249 249 248 250 251 252 252 252 251 251 252 253 252 252 252 251 251 251 251 250 250 251 253 254 255 255 255 255 255 255 255 255 255 255 254 254 254 253 253 253 253 254 254 254 254 254 253 253 253 253 253 253 253 252 252 252 252 252 252 252 252 252 252 251 251 251 251 251 251 251 251 251 251 251 251 252 252
247 247 248 248 248 248 247 246 246 247 247 249 250 251 251 252 252 252 252 252 251 252 252 252 252 252 251 251 252 252 252 252 253 255 255 255 255 255 255 255 255 255 255 255 255 253 253 253 252 252 252 253 253 254 253 252 253 253 253 253 252 253 252 253 253 252 252 252 252 252 252 252 252 252 251 251 251 251 251 251 251 251 251 252 252 252 251
Wind_Speed
4 3 1 3 2 2 7 12 11 13 13 10 14 14 8 11 9 13 3 8 9 13 11 10 9 10 10 9 8 5 3 3 5 6 7 9 11 12 13 14 14 14 14 15 17 16 14 13 13 13 11 11 10 8 8 8 8 9 9 9 9 9 9 8 7 6 6 6 5 5 4 4 4 3 3 3 2 2 2 2 2 2 1 1 2 2 2
1 2 2 2 6 3 2 9 11 12 14 15 13 12 11 13 14 14 6 7 12 10 6 11 10 5 5 2 3 3 3 5 7 7 8 9 11 12 14 16 15 15 15 13 13 13 13 15 15 14 13 10 10 10 10 9 9 8 9 9 10 9 9 8 7 7 7 6 5 5 4 4 3 3 3 2 2 2 1 2 2 2 1 2 1 2 3
3 2 3 2 1 2 4 8 10 8 7 9 13 16 15 13 15 16 10 8 12 4 6 4 4 4 3 3 4 6 6 5 6 7 8 9 11 12 13 11 11 11 11 11 11 12 13 14 15 14 12 11 11 11 9 8 8 9 9 9 9 9 8 7 7 7 7 6 5 5 4 3 3 3 3 2 2 1 1 2 1 2 1 1 2 2 3
3 2 5 3 2 1 5 12 17 8 10 10 14 13 12 9 13 13 8 12 12 4 9 5 5 4 6 8 7 6 6 6 6 8 9 10 10 9 9 10 11 11 11 12 14 14 15 15 14 11 11 11 11 12 9 10 9 9 9 9 9 8 8 8 7 7 6 6 5 5 4 3 3 3 2 2 1 1 1 1 1 1 1 1 2 3 3
3 1 3 6 4 2 8 17 17 11 15 16 10 9 8 13 12 9 12 15 8 3 8 8 8 8 10 8 7 7 6 6 8 9 10 9 7 8 9 10 11 12 13 14 15 14 14 14 15 12 14 12 14 13 12 10 8 9 9 9 9 8 8 8 7 7 6 6 5 5 4 3 3 3 2 2 1 1 0 0 1 1 1 2 2 2 3
1 1 2 2 3 7 12 2 6 13 18 19 16 15 15 13 12 9 9 7 2 5 7 10 10 10 11 11 9 5 5 5 6 8 7 7 8 8 8 9 10 11 11 11 12 15 15 15 15 14 16 10 11 9 9 9 10 9 10 9 8 8 8 7 7 7 7 6 5 5 4 3 3 3 2 1 1 1 1 1 2 1 1 2 2 3 3
2 2 4 5 10 14 3 3 2 2 6 10 18 18 11 11 12 12 9 8 9 11 8 10 10 10 5 1 3 4 5 6 6 8 8 9 9 9 8 8 9 9 10 10 11 11 10 9 8 7 7 8 8 8 9 10 9 10 9 9 8 8 8 7 7 7 7 6 6 5 4 4 3 3 2 2 2 2 2 2 2 2 2 2 2 3 4
3 2 7 5 8 1 5 2 2 1 4 2 2 7 11 9 12 12 12 14 10 5 7 8 1 3 1 1 5 6 7 8 7 7 8 9 8 8 8 10 10 9 9 10 11 11 8 9 8 10 11 10 11 10 9 10 10 9 9 8 8 8 8 8 8 8 7 7 6 5 5 4 4 3 3 3 3 2 2 2 2 2 2 2 3 4 4
6 5 9 10 8 13 12 7 6 10 8 8 9 8 8 9 11 12 11 14 6 6 9 3 4 3 0 5 6 10 11 9 10 11 10 6 6 7 6 5 5 5 6 7 7 6 8 9 10 11 9 9 9 9 9 8 8 9 9 9 9 9 8 9 8 8 8 7 6 6 5 5 4 4 4 4 3 3 3 2 2 2 2 3 3 3 5
6 5 6 5 6 12 14 10 6 8 6 6 5 8 7 3 8 11 12 10 10 10 4 5 4 4 2 6 10 5 9 10 12 7 0 1 3 4 4 3 2 2 3 3 5 7 8 9 10 8 9 10 10 10 9 9 9 9 9 10 9 10 9 8 9 8 7 7 7 6 5 5 4 4 3 2 3 3 2 2 2 2 2 3 3 3 5
6 8 9 10 9 11 8 2 4 4 2 9 4 2 7 3 10 12 14 13 10 5 7 6 8 3 5 8 9 3 5 6 7 7 8 7 6 5 6 6 6 7 7 7 7 7 8 10 9 10 10 11 10 10 10 10 10 10 11 11 10 10 10 9 8 8 6 6 6 6 5 5 4 4 4 4 2 2 2 2 2 2 2 3 3 4 5
9 9 9 10 5 7 1 1 3 4 3 7 4 4 4 4 7 3 6 10 9 8 7 9 7 7 7 8 6 4 5 4 6 8 8 7 6 5 4 4 5 7 7 8 7 9 11 11 10 11 10 10 11 12 10 10 11 11 13 12 10 8 8 8 7 6 6 7 6 6 6 5 4 4 3 3 3 2 1 2 2 2 2 3 4 4 5
11 14 10 5 5 2 2 4 3 5 1 2 7 12 3 3 5 6 9 9 9 6 7 9 6 10 8 1 4 2 2 3 3 4 2 1 2 5 6 6 6 6 7 9 10 12 9 10 10 10 10 9 10 10 9 9 11 14 11 8 8 8 8 7 7 7 6 6 6 5 5 5 4 4 3 3 2 2 2 2 2 3 3 4 4 5 5
13 12 9 8 5 2 5 2 5 5 6 6 8 1 4 9 7 7 10 9 5 7 10 9 9 6 4 5 2 2 5 4 3 4 5 3 2 2 3 6 7 5 6 6 4 4 6 8 9 9 9 13 10 9 8 11 17 9 8 8 8 8 7 7 7 6 6 5 5 5 5 4 4 3 3 2 2 2 2 1 2 4 4 4 4 5 5
1 0 8 3 9 2 8 11 6 5 4 2 5 4 1 1 5 8 7 6 4 9 8 10 9 4 4 6 5 5 4 3 3 4 5 6 6 6 5 5 6 6 6 7 8 8 6 7 8 8 12 14 11 10 11 18 9 7 8 8 8 7 7 7 7 7 6 7 6 4 5 4 4 3 3 2 2 2 2 2 3 4 4 4 4 4 4
5 8 8 8 1 6 11 16 8 7 7 2 4 5 3 3 4 6 6 6 8 9 9 8 8 6 5 4 5 5 4 4 2 2 3 2 3 4 5 4 8 7 7 6 6 5 5 6 7 8 13 13 12 13 19 9 8 7 6 7 8 10 9 7 7 6 6 6 5 5 5 5 4 3 3 2 1 2 2 2 3 3 3 3 3 4 4
7 6 3 1 2 3 10 5 3 6 7 5 8 5 4 6 4 4 3 6 7 9 9 8 8 7 8 8 7 8 7 6 6 6 7 7 7 8 8 8 6 6 9 8 7 5 6 7 8 9 9 13 14 16 12 9 11 12 13 12 13 13 11 8 7 6 6 5 5 4 4 5 4 3 3 3 2 2 3 3 3 3 3 2 3 4 4
1 3 3 1 1 3 7 2 1 2 4 1 1 6 4 3 4 7 7 6 7 9 8 6 4 6 7 7 6 7 7 6 6 5 4 4 5 4 2 2 7 8 5 3 5 9 7 8 9 8 9 10 15 17 7 11 8 13 14 14 13 13 10 7 7 7 7 5 4 4 5 4 4 3 3 3 3 2 2 3 2 3 3 2 3 4 4
1 5 6 5 4 4 6 9 3 2 1 2 2 3 4 3 4 4 4 3 5 6 7 9 8 8 7 7 6 7 5 6 7 7 8 8 8 7 8 10 8 6 8 8 10 11 12 10 9 8 10 11 10 3 9 7 9 14 12 14 13 10 8 7 6 7 8 6 6 5 4 4 3 3 3 3 3 3 3 3 3 3 3 3 3 3 5
4 1 5 2 4 3 3 3 5 6 5 5 4 3 1 1 3 4 4 3 2 5 5 9 9 9 7 7 7 6 6 7 6 7 8 9 7 8 9 7 7 7 9 12 12 12 14 11 9 9 10 10 10 6 8 9 14 13 12 14 11 9 8 7 7 7 6 7 7 5 5 5 4 4 4 4 4 5 4 4 3 3 3 3 4 4 6
1 3 3 2 3 4 5 4 6 7 6 2 4 5 4 3 4 4 3 5 5 8 9 8 7 5 8 8 8 7 6 6 6 8 8 8 9 9 8 8 10 11 12 13 13 13 14 11 12 11 14 12 10 10 9 12 15 16 11 13 10 11 7 6 6 6 5 6 5 5 4 4 4 4 4 5 5 4 5 4 4 4 4 5 5 6 6
3 6 7 8 3 2 5 9 11 10 9 7 6 3 4 6 8 7 7 6 6 7 6 6 6 7 8 8 8 9 9 9 9 8 8 7 9 8 8 4 8 10 10 12 13 13 12 7 9 13 12 11 10 7 10 13 15 15 12 10 9 7 6 6 6 6 5 5 4 4 4 4 4 3 7 10 7 5 4 8 14 15 12 8 8 7 7
5 4 7 8 8 7 6 7 10 10 7 6 8 9 10 10 9 6 6 6 6 7 8 7 8 11 9 10 8 9 8 8 9 9 9 8 8 8 6 7 8 10 11 11 10 11 9 5 9 11 13 11 10 8 10 10 13 13 13 9 7 6 7 7 7 6 6 5 5 4 4 3 3 3 2 5 11 14 12 10 11 12 13 14 14 12 8
3 3 8 10 8 8 6 6 7 8 7 9 10 11 10 9 7 7 9 10 10 8 8 8 10 11 10 9 7 11 10 9 8 8 9 10 10 8 5 7 9 10 10 9 11 14 10 9 10 9 10 10 12 11 10 10 10 11 15 11 8 8 7 6 6 5 5 5 5 5 4 4 4 3 2 2 2 8 10 8 8 8 9 9 9 9 9
8 5 7 10 11 8 5 4 5 6 6 8 7 9 9 8 8 8 9 9 8 9 8 8 10 10 10 11 8 11 12 11 9 10 9 10 8 7 7 6 8 10 11 12 11 10 9 9 9 10 11 11 10 11 12 13 10 12 15 13 11 7 6 7 7 7 6 6 6 5 5 5 5 5 4 3 2 1 5 7 7 7 5 5 6 7 8
5 5 4 1 1 5 3 3 7 8 6 7 8 8 10 9 10 8 10 10 9 9 9 9 7 9 10 10 10 9 8 10 8 6 5 5 5 5 7 10 13 11 11 9 10 10 9 10 11 10 12 10 11 12 13 11 11 12 12 10 11 7 7 8 8 7 6 6 6 5 5 5 5 5 4 4 3 2 2 1 2 4 5 6 6 6 7
5 5 7 3 3 7 6 8 8 12 8 11 10 11 9 7 8 7 4 4 5 5 7 9 8 6 5 8 7 7 8 9 4 6 6 8 9 11 11 10 8 9 9 8 7 7 8 7 8 9 11 7 9 10 13 14 13 12 11 9 6 7 11 10 6 7 6 6 6 5 5 5 5 5 5 4 3 4 3 2 3 2 2 1 4 5 5
9 8 11 9 9 10 9 12 13 13 4 10 9 10 8 3 2 4 6 7 5 5 8 7 6 5 7 6 6 8 5 6 9 8 6 10 11 9 6 4 4 4 5 6 7 4 5 6 7 8 10 7 11 11 12 12 13 12 11 9 6 6 6 8 6 6 6 5 6 6 6 5 5 4 3 4 3 3 3 3 3 3 4 3 3 7 10
10 10 10 11 12 13 4 2 5 8 9 7 7 5 4 4 7 6 8 9 9 5 8 6 6 8 7 7 5 7 7 8 9 9 10 10 6 2 1 2 2 3 5 6 6 5 6 8 9 11 10 7 12 11 13 12 11 9 8 7 7 5 6 6 6 6 5 5 5 6 6 5 5 4 4 3 3 3 3 4 3 3 3 3 3 3 3
13 8 9 10 11 10 7 8 10 9 8 6 5 6 5 6 6 9 10 10 6 10 12 10 4 5 7 7 7 8 10 11 12 10 7 6 2 3 4 4 4 1 1 5 9 8 8 8 8 11 7 8 10 11 13 10 7 9 9 7 6 6 6 6 6 5 5 5 5 8 5 5 4 4 4 4 4 4 4 4 4 3 3 3 3 3 2
10 4 7 8 7 5 7 12 12 12 9 4 7 7 5 4 8 10 10 9 8 9 8 7 8 6 5 8 9 8 8 7 6 6 4 2 3 4 5 6 6 7 8 9 6 6 8 9 8 7 5 9 12 11 11 10 7 7 6 5 4 5 7 10 8 6 5 5 6 6 5 5 4 5 4 4 4 4 4 3 3 3 3 2 3 3 3
4 5 6 4 5 6 6 7 10 11 10 5 4 7 11 9 10 13 12 8 9 11 10 7 6 9 10 8 6 4 5 6 6 6 5 3 2 2 5 7 8 6 3 2 2 4 6 5 9 4 8 9 10 10 10 8 8 7 6 7 6 6 8 12 6 7 5 5 5 5 4 5 5 6 5 5 5 5 4 3 3 4 3 4 4 4 2
5 3 3 5 4 3 7 8 8 11 10 8 11 11 8 8 9 9 10 9 7 7 8 8 8 8 7 4 3 4 5 4 4 4 4 4 4 4 1 1 2 2 2 2 1 2 5 7 4 5 7 7 10 9 9 8 7 6 6 6 5 6 7 10 8 6 5 4 4 5 4 4 4 5 5 4 4 3 3 3 3 4 4 4 4 3 3
11 12 14 12 12 12 12 14 11 11 11 11 9 8 7 7 9 10 10 8 7 5 7 9 8 4 2 4 4 4 3 1 5 6 5 4 3 3 2 1 0 0 1 2 1 1 1 1 4 5 5 7 6 7 7 7 6 5 5 5 5 5 7 7 8 6 6 5 3 4 5 4 5 5 4 4 4 4 4 4 4 4 4 4 4 3 5
12 13 13 12 9 9 9 10 10 10 10 11 9 7 8 8 8 9 8 7 8 9 4 2 3 3 4 4 4 4 5 7 6 4 2 0 2 4 4 3 2 2 1 2 1 0 1 3 5 6 7 7 6 5 5 6 5 5 5 4 5 5 4 4 6 5 4 4 4 5 6 6 5 4 4 4 4 4 4 4 4 4 4 4 2 2 3
8 8 9 8 9 7 7 9 10 9 8 9 8 4 6 8 7 7 8 6 1 1 1 1 2 2 3 4 5 5 6 5 3 2 1 1 3 4 4 4 3 2 1 2 1 1 2 3 5 7 6 6 7 7 7 7 5 5 5 5 4 3 2 3 3 3 2 3 4 4 4 3 3 3 5 5 4 4 4 5 5 5 4 3 2 2 2
8 9 10 9 7 5 7 6 2 2 3 3 2 2 4 2 2 1 2 1 1 1 2 0 2 3 5 3 1 1 1 0 0 0 2 3 4 5 4 4 3 2 1 1 1 4 2 3 6 8 5 5 6 6 7 8 5 5 5 5 4 4 4 4 3 3 3 3 3 3 2 3 4 5 5 5 5 6 7 5 4 4 4 3 2 2 2
1 2 3 3 3 1 4 4 4 4 2 6 6 5 3 2 2 2 2 4 4 3 2 0 2 1 3 5 4 4 3 3 3 5 5 5 4 6 4 3 1 2 1 0 2 3 3 6 10 7 5 5 5 5 7 7 6 5 4 4 4 3 3 3 3 2 2 3 2 3 3 3 3 4 4 5 7 7 5 4 4 4 3 3 3 3 3
3 4 5 5 5 6 7 5 7 9 8 5 5 4 3 3 1 3 4 4 4 3 1 4 4 5 3 5 4 4 3 2 3 5 5 5 3 3 2 1 1 1 1 1 2 3 6 7 7 6 5 5 6 6 7 9 8 4 4 3 3 3 3 2 3 2 2 2 3 3 3 3 4 4 4 4 4 4 4 5 4 4 3 3 3 3 3
4 5 4 4 5 5 7 9 9 8 6 5 5 4 4 3 3 5 4 4 5 5 2 3 4 4 4 5 5 3 2 2 2 3 5 4 5 5 4 3 2 2 2 1 1 3 6 9 7 4 5 6 6 6 6 8 8 3 4 3 3 3 3 2 3 2 2 3 3 4 4 3 4 4 4 3 4 4 4 4 5 4 4 3 3 3 3
5 4 4 6 6 5 6 8 8 5 5 6 5 5 4 2 1 4 5 4 3 4 6 3 5 5 5 6 7 6 5 4 5 4 3 4 3 2 1 1 2 2 2 1 1 3 5 4 3 4 4 4 4 5 5 7 6 4 4 4 3 3 3 3 3 3 2 3 2 3 4 4 4 5 4 4 5 4 4 4 4 4 3 3 3 3 3
5 3 4 7 7 7 6 6 5 8 7 5 5 5 6 5 4 5 3 2 4 5 7 8 6 8 7 7 8 7 6 6 6 5 4 3 2 1 2 1 1 0 2 4 4 5 4 3 3 4 4 4 4 6 7 5 4 4 4 4 4 4 4 3 3 4 3 3 3 3 2 3 4 4 4 4 4 4 4 4 3 3 4 4 4 4 3
5 4 4 5 5 5 5 4 7 8 6 6 6 6 4 4 5 6 7 8 7 7 8 8 7 7 7 7 8 8 5 4 5 5 5 5 6 4 2 2 1 0 2 2 2 2 3 2 2 2 3 3 4 7 6 4 4 4 4 4 4 4 4 4 4 4 4 5 5 4 4 4 4 4 4 5 5 4 4 4 4 4 3 4 4 4 4
3 3 3 4 4 4 4 6 7 8 11 6 5 5 6 7 7 7 7 7 7 6 7 6 6 7 6 5 5 4 3 2 2 2 3 3 3 3 4 2 2 2 4 3 2 2 2 2 2 4 6 6 8 7 4 3 3 3 3 4 4 3 4 4 4 4 5 5 6 5 5 4 5 5 5 5 5 4 4 4 4 4 4 3 4 4 4
3 3 4 5 4 5 4 4 8 9 6 4 5 7 8 8 7 5 5 7 7 6 5 5 5 5 4 3 4 3 3 2 1 0 2 2 1 1 1 1 2 2 3 4 2 2 1 1 3 6 5 6 7 6 3 3 3 3 3 4 4 4 4 5 5 5 5 6 6 6 5 5 5 5 5 5 4 5 5 4 5 4 4 4 4 4 5
3 3 2 3 7 6 5 5 5 5 6 7 9 8 7 6 6 5 4 6 7 6 4 5 5 6 7 8 6 5 4 2 3 2 2 1 1 1 1 1 1 2 5 5 2 2 1 4 6 6 7 7 7 5 3 4 3 4 4 4 5 4 5 5 5 6 6 6 6 6 7 7 6 5 5 5 5 5 5 4 5 5 5 5 5 5 5
2 3 4 5 6 5 5 6 5 5 5 8 11 7 4 4 4 3 4 5 5 5 4 5 6 5 3 3 2 3 3 3 2 1 1 1 2 2 3 2 1 3 3 2 2 1 1 2 2 3 3 3 4 1 1 1 2 2 3 3 4 4 4 5 6 6 6 6 6 6 7 6 7 7 6 6 6 7 7 7 7 6 5 4 6 6 7
4 5 5 3 4 3 4 5 6 6 7 8 7 5 2 2 3 3 2 3 5 4 4 3 3 2 3 4 5 2 1 1 4 1 0 0 0 0 1 2 1 2 3 3 3 2 3 2 2 2 2 3 2 2 2 3 3 3 4 4 4 5 5 5 5 5 6 5 5 5 6 6 6 6 6 6 7 7 6 7 8 8 8 7 6 5 5
5 4 2 1 5 4 5 6 7 6 5 4 4 3 2 3 3 4 3 4 6 5 4 4 4 3 1 2 2 1 0 1 1 2 1 0 0 1 0 2 5 4 2 1 0 0 1 2 2 3 3 4 2 2 2 3 3 3 4 5 5 5 5 5 6 6 6 6 6 6 6 6 7 6 7 6 6 7 6 7 8 8 8 6 5 5 6
4 4 3 2 1 2 2 3 3 3 4 3 3 2 0 0 3 2 2 2 2 3 3 3 2 2 2 1 1 1 1 2 3 3 3 2 2 2 2 2 2 3 2 0 0 0 1 1 1 2 2 2 2 2 3 3 4 4 5 5 5 6 6 5 5 7 7 6 6 6 6 7 8 7 7 7 7 8 8 6 6 7 10 8 8 7 6
3 3 2 3 2 2 4 3 3 4 3 3 2 1 1 2 3 2 1 1 1 3 4 4 3 3 2 2 1 1 1 1 2 3 2 2 2 2 2 2 1 1 0 0 0 0 0 0 0 1 1 2 3 3 4 4 4 5 5 5 6 5 6 5 5 6 6 6 7 7 8 7 7 8 7 7 7 7 7 6 6 6 6 6 7 7 6
4 2 2 2 2 3 3 3 3 2 1 1 1 2 3 3 4 3 2 2 1 2 1 3 4 2 2 2 2 2 1 1 1 1 2 1 1 1 1 1 0 0 0 1 1 1 1 1 1 3 3 3 3 4 4 5 4 5 5 4 6 6 6 6 6 7 7 6 7 7 7 7 7 7 7 7 6 6 6 6 7 6 6 6 6 6 6
Wind_Direction
94 35 52 145 107 170 182 200 190 193 191 174 199 216 207 145 208 232 208 148 224 243 224 177 197 192 201 202 207 200 178 154 155 165 181 194 208 209 206 209 207 204 203 204 199 193 190 186 188 188 189 191 188 183 173 180 172 176 166 169 173 172 171 170 164 151 139 130 138 147 158 177 179 161 134 119 110 107 93 94 86 66 37 358 334 329 322
4 24 74 160 169 132 244 219 217 201 181 189 194 216 212 197 226 240 220 175 236 238 131 174 200 179 180 162 95 111 165 191 185 183 190 202 211 210 211 211 208 207 208 202 195 191 185 185 190 193 193 189 185 184 192 184 180 171 165 175 171 171 173 165 151 147 141 138 151 158 178 186 171 142 120 108 103 92 81 73 75 55 18 348 331 330 325
178 80 73 65 352 215 224 240 240 226 156 171 197 219 224 221 237 244 243 223 256 182 144 156 64 93 111 118 175 191 197 193 183 184 199 212 219 219 218 216 211 208 202 197 191 191 190 190 193 194 191 184 184 188 178 168 176 171 172 171 171 169 164 152 149 146 144 152 155 171 181 179 148 124 106 102 92 81 64 63 48 43 354 337 340 327 319
213 133 135 96 74 12 261 254 244 174 147 190 218 220 220 195 222 235 246 250 251 161 151 140 132 156 184 207 197 191 207 203 184 196 210 218 223 223 217 216 213 205 200 197 195 195 196 197 194 188 186 185 186 193 177 177 175 167 174 170 165 161 151 151 151 150 149 151 160 170 179 173 140 114 106 102 95 83 41 54 34 12 334 327 323 316 310
210 42 145 138 126 190 257 243 232 178 185 214 216 232 222 210 205 219 224 230 235 144 156 177 197 195 215 218 206 212 210 197 198 206 213 219 222 218 216 213 207 203 201 201 198 196 193 195 198 191 190 184 189 186 175 175 153 168 171 165 159 155 152 153 154 152 152 155 161 176 182 155 133 127 119 125 132 150 241 2 307 265 294 316 299 304 301
124 358 133 165 169 224 228 43 111 195 203 206 214 224 214 211 197 217 227 251 233 131 157 193 201 198 211 214 214 205 212 200 202 221 223 224 224 223 217 211 207 207 205 203 201 199 195 191 194 195 195 180 183 167 154 150 161 167 163 162 157 152 151 154 154 155 157 155 167 177 169 152 142 140 138 159 149 206 203 238 234 260 270 272 279 291 296
152 172 143 176 216 232 265 37 11 8 193 191 216 232 229 214 212 225 243 245 238 221 183 196 207 207 191 35 233 212 213 214 210 203 211 215 218 216 209 212 212 208 204 204 207 207 204 193 181 140 164 167 149 148 154 159 167 160 167 158 153 155 159 158 157 160 160 165 169 168 164 153 150 152 160 165 191 210 209 225 223 239 246 255 268 275 283
68 108 185 215 229 2 305 206 87 296 97 161 115 265 249 213 184 197 218 225 222 191 203 217 149 68 88 281 252 229 217 201 192 202 215 214 201 203 208 205 210 203 200 200 200 203 188 176 179 179 184 169 159 163 161 161 164 165 156 154 157 162 164 166 169 168 164 166 167 166 162 159 163 171 171 189 201 205 211 228 220 230 246 243 260 264 275
185 188 203 227 348 316 280 248 204 170 170 164 186 242 241 190 182 197 208 228 216 206 220 140 100 111 134 268 257 192 205 197 207 209 213 199 197 203 211 207 221 206 198 200 198 166 172 183 178 184 165 153 151 145 159 164 155 159 161 166 173 172 168 170 172 169 170 165 164 163 163 165 171 179 183 197 205 197 212 223 222 234 247 251 254 268 271
192 190 230 246 240 250 257 232 90 181 181 162 177 214 265 106 189 189 200 222 222 222 137 119 131 117 268 272 264 170 188 195 208 226 333 75 178 188 182 167 193 199 211 195 182 180 180 179 176 161 148 154 151 154 160 160 161 169 174 183 178 174 177 171 169 168 168 162 159 164 164 174 170 182 180 197 197 206 215 219 236 234 260 263 253 253 264
179 204 212 225 226 233 254 296 158 142 159 125 111 97 261 175 180 194 189 209 222 209 156 152 150 168 223 243 254 115 168 192 205 204 217 220 215 186 175 176 178 180 182 186 177 172 172 175 172 153 152 150 152 163 164 166 172 171 189 188 178 178 177 167 164 159 157 157 161 162 166 168 169 176 186 195 191 192 215 231 242 246 252 262 261 264 259
221 212 217 223 209 257 342 202 151 177 144 149 107 251 267 152 210 175 176 205 218 212 169 154 173 183 221 239 256 112 183 170 186 194 204 207 208 197 170 184 181 164 149 140 159 173 180 179 158 154 154 159 169 167 172 169 176 191 196 190 173 163 151 150 152 153 154 155 160 159 160 155 162 180 175 180 193 205 214 246 248 256 256 261 267 267 269
223 225 238 257 263 247 205 175 140 131 186 153 184 234 147 184 178 195 189 201 207 175 150 165 181 222 217 250 62 73 98 127 188 220 215 173 170 173 173 174 153 157 170 176 178 183 181 158 154 159 156 156 171 180 166 175 195 203 189 150 151 154 148 150 151 151 154 159 155 152 154 157 163 168 184 184 174 190 226 241 253 276 273 272 270 268 264
225 226 242 240 272 198 143 59 137 178 134 201 219 181 110 160 197 196 193 200 199 152 175 186 211 213 108 98 90 141 197 197 176 160 168 160 142 95 117 147 163 165 177 189 177 161 167 153 156 160 161 171 182 164 173 198 208 187 136 148 150 148 153 154 147 144 147 148 145 142 142 149 158 173 173 163 180 198 236 250 269 268 270 273 276 277 276
253 201 246 233 238 175 121 117 69 282 181 251 99 126 27 136 177 161 206 209 186 176 200 208 214 129 144 178 187 194 195 201 179 170 175 188 185 171 153 168 196 174 174 191 200 188 157 155 166 169 171 180 183 179 189 210 185 136 152 148 156 154 148 144 145 145 149 148 148 146 148 157 159 167 165 161 186 201 223 252 249 264 263 260 272 278 281
169 200 207 218 264 131 168 146 183 192 203 125 155 132 162 174 176 172 182 208 204 197 201 203 217 206 174 195 216 211 206 221 215 212 222 221 189 185 206 196 178 177 192 195 191 168 155 167 175 176 179 185 187 186 210 196 123 135 142 155 146 145 144 145 143 153 146 142 143 152 153 154 160 163 167 154 197 220 212 241 258 259 277 270 277 280 285
174 208 219 53 316 153 188 181 4 171 168 135 187 150 140 147 214 175 186 210 193 199 207 212 202 198 205 211 196 198 211 202 201 209 212 204 202 197 195 200 180 182 195 194 185 167 176 182 191 192 197 188 187 200 210 138 160 159 151 150 157 154 156 151 154 148 147 154 154 152 151 157 163 168 166 170 209 204 199 230 239 261 270 272 279 283 286
289 316 143 38 25 227 203 195 9 7 135 145 252 138 137 211 169 166 188 198 183 195 202 198 217 213 209 201 200 208 225 220 221 220 226 233 239 242 224 174 179 199 203 176 179 195 193 191 198 201 207 201 194 212 148 160 158 140 151 158 164 167 151 157 156 144 144 145 147 149 156 165 171 176 167 181 204 209 213 226 226 239 261 266 273 278 277
138 239 100 162 180 200 207 206 223 245 261 192 175 185 211 167 160 193 225 199 177 181 173 199 213 216 204 205 209 203 209 215 218 212 214 220 208 202 201 213 182 171 179 191 204 202 208 199 199 205 207 217 220 143 159 151 146 151 160 159 157 144 163 156 151 158 161 167 163 159 168 167 172 177 183 191 199 216 213 212 222 231 248 250 265 265 291
196 275 157 215 1 275 277 241 236 251 231 193 201 235 29 103 176 193 203 141 146 145 183 209 212 232 215 204 223 211 209 211 210 212 219 221 213 214 215 208 184 190 191 204 210 209 216 202 194 196 203 212 210 166 149 143 141 150 161 173 168 168 160 160 162 169 168 157 160 162 169 171 177 182 191 199 204 211 202 204 212 228 226 237 242 266 285
146 32 290 270 330 286 237 214 239 248 248 204 202 204 206 193 199 210 192 208 186 182 208 194 202 229 240 212 218 221 225 220 222 223 222 222 219 213 203 208 188 197 200 209 215 211 222 201 183 184 208 214 197 174 170 154 157 158 170 170 162 147 159 159 162 164 167 160 173 162 156 173 200 202 192 193 205 218 216 210 220 223 239 237 237 244 258
210 206 184 160 150 228 213 221 223 222 227 210 222 180 200 211 219 209 196 210 217 221 225 192 190 209 233 223 209 222 227 221 221 226 230 232 229 229 217 190 202 218 219 216 218 219 228 193 186 200 209 196 178 180 165 160 162 174 176 155 160 170 170 173 156 160 165 163 157 162 164 178 183 225 230 225 217 204 220 227 233 237 227 232 234 235 238
233 172 154 184 203 220 214 195 210 221 217 182 210 221 223 223 218 197 190 215 216 227 235 215 199 213 223 230 205 220 233 231 224 222 222 228 234 233 195 198 209 215 223 223 229 233 230 186 200 206 208 187 179 179 174 172 180 181 161 160 170 165 169 185 169 159 156 159 165 168 171 173 189 211 234 223 229 235 241 247 252 255 261 269 277 281 283
307 142 170 191 196 210 216 208 199 213 200 186 208 221 223 228 217 192 204 214 215 221 220 207 212 219 226 232 206 221 238 238 230 224 227 228 231 232 202 204 216 217 225 223 224 230 223 208 209 197 207 198 185 175 170 165 185 178 170 170 174 176 173 160 151 161 156 157 154 168 170 176 183 182 222 266 232 200 217 237 246 264 275 272 269 271 276
227 167 180 196 204 211 213 211 205 220 195 186 208 226 227 225 230 206 208 224 225 225 225 216 209 213 222 236 218 222 232 237 224 224 231 231 236 228 224 213 222 219 223 216 217 221 225 215 208 203 206 207 187 183 175 173 186 185 187 192 168 152 151 152 162 164 164 162 170 169 172 174 179 188 190 199 231 188 172 199 247 272 269 266 272 272 278
202 165 163 117 11 242 250 349 282 240 187 194 211 236 232 223 227 195 211 216 221 213 223 235 222 202 206 222 225 222 237 247 242 228 215 216 207 211 223 221 224 219 227 224 226 227 222 214 210 205 212 205 179 178 163 168 186 189 178 188 177 160 158 163 157 164 168 171 170 175 175 176 182 182 194 190 193 227 280 267 199 224 248 272 278 289 286
207 166 118 129 225 240 201 201 232 253 190 189 196 221 216 212 219 228 245 250 243 231 224 231 231 218 202 227 237 231 225 245 246 227 221 232 228 227 226 228 227 228 230 234 235 230 225 220 214 215 223 201 171 170 157 162 166 169 171 166 152 170 170 167 158 160 163 168 168 166 166 174 178 187 185 184 182 194 216 250 281 288 287 277 276 277 283
203 192 178 197 219 225 216 211 225 252 171 175 203 223 222 152 170 225 243 248 246 235 232 235 228 225 228 219 205 242 235 240 242 240 232 232 231 235 236 230 228 228 230 234 241 218 202 209 212 218 227 182 156 165 171 174 170 164 164 159 160 156 166 174 164 160 165 167 164 167 171 176 181 182 176 176 183 199 208 227 242 263 274 269 285 299 300
213 205 195 210 221 233 236 78 206 233 232 189 194 205 153 181 217 223 236 232 234 237 244 236 213 223 228 232 188 229 235 234 242 243 237 238 243 226 187 189 198 207 217 228 228 205 201 207 211 218 222 153 154 162 147 149 171 174 170 173 167 161 159 170 161 163 160 158 164 168 168 160 169 174 184 186 190 196 213 221 229 240 257 280 293 288 268
229 202 192 211 226 238 238 248 243 232 221 177 189 212 203 200 217 228 226 234 224 230 238 242 219 223 213 231 228 223 232 236 237 244 250 240 202 173 155 134 98 67 283 241 228 213 213 218 217 226 206 147 151 145 145 161 170 175 181 173 176 167 165 145 147 147 153 164 167 169 168 167 171 180 182 188 194 205 213 220 222 230 243 251 261 266 275
227 184 178 200 218 229 223 239 248 252 241 183 193 206 202 192 225 236 235 230 226 235 248 238 237 243 221 223 230 225 234 248 256 257 254 226 188 178 165 160 180 223 222 236 222 205 214 222 219 225 143 147 140 151 160 174 158 152 159 166 174 159 152 154 163 161 163 157 167 176 174 170 176 182 189 194 202 209 214 215 215 229 233 238 245 247 252
137 170 180 204 208 216 231 242 247 250 243 207 190 219 203 193 214 230 237 234 226 226 236 240 235 236 236 234 231 223 223 237 246 252 257 236 179 160 188 205 228 257 339 14 171 193 205 208 229 209 129 143 143 163 170 168 159 163 167 164 159 159 172 169 172 176 165 168 173 175 172 170 184 195 196 200 202 206 207 205 216 220 222 223 228 234 242
154 214 269 245 238 226 239 241 229 244 243 215 214 226 223 212 222 233 236 234 234 226 226 236 237 237 241 236 222 217 226 232 255 267 269 247 218 204 157 268 305 326 331 360 313 194 197 214 216 105 139 127 152 171 178 167 161 159 151 153 152 152 159 178 177 168 168 173 180 185 175 181 182 190 201 198 202 203 205 212 223 226 229 226 228 235 233
196 214 226 224 212 215 224 240 236 237 251 247 227 223 219 214 218 229 238 237 237 235 221 229 234 238 228 224 222 219 191 220 259 251 242 238 200 151 148 166 84 82 44 8 51 164 203 171 110 134 129 140 148 161 161 153 160 155 148 146 150 141 166 173 176 175 172 181 182 177 184 189 194 196 192 196 201 203 207 214 222 227 233 232 229 218 236
216 227 233 240 234 226 226 230 238 234 234 249 241 209 216 218 217 228 234 231 230 233 236 239 236 217 203 199 200 199 192 222 244 270 343 138 159 153 133 115 94 74 59 35 39 59 70 83 109 122 133 147 151 146 142 160 143 135 144 145 141 155 165 166 174 180 176 171 163 183 195 202 205 199 202 203 205 207 216 221 226 226 232 236 234 213 229
203 229 241 246 245 230 224 230 235 237 233 234 248 214 200 213 214 221 223 225 274 26 2 245 211 160 175 185 204 206 218 232 254 293 10 106 110 120 113 124 137 125 112 349 221 85 76 102 120 135 147 152 154 157 158 160 129 124 134 142 152 151 157 168 162 152 154 151 169 192 200 193 185 198 210 211 214 218 220 224 226 227 232 238 239 238 239
201 214 228 234 245 236 236 251 311 320 266 266 275 193 184 187 192 214 22 40 30 30 3 45 133 186 212 210 179 95 65 34 36 73 93 112 113 113 117 116 125 152 128 284 120 138 136 114 139 134 131 148 160 155 156 143 132 132 137 147 149 155 159 163 167 173 178 178 183 187 189 195 212 220 219 217 222 225 227 227 224 228 233 235 237 242 244
254 298 293 320 352 24 50 37 12 26 88 84 44 38 51 54 17 55 67 54 28 350 331 126 165 127 98 84 70 64 55 37 76 92 88 106 121 110 108 136 166 152 195 152 101 143 139 137 145 149 147 152 147 135 151 136 112 123 137 141 147 151 158 164 166 177 178 178 184 194 201 208 213 216 217 221 225 226 225 224 225 226 230 230 234 237 242
32 22 52 41 47 65 84 56 32 33 27 88 96 58 24 27 42 79 74 51 360 330 71 101 106 101 106 105 98 77 35 7 41 101 116 120 125 123 111 107 73 48 75 94 171 145 143 144 150 152 153 134 123 120 134 143 142 136 132 136 142 157 158 170 175 177 177 177 195 212 215 227 228 227 224 221 219 221 226 228 228 226 228 228 227 232 232
41 26 1 1 63 43 60 62 44 47 40 35 62 57 335 6 56 86 86 63 16 1 6 132 124 122 127 122 124 96 51 42 48 75 101 113 104 103 99 84 83 76 73 142 137 147 152 154 148 139 143 146 145 146 149 153 153 135 144 149 159 161 169 169 170 178 182 189 211 220 230 228 230 229 230 228 225 223 225 221 225 226 227 223 226 231 233
28 1 354 56 68 53 65 70 66 51 42 32 35 5 348 360 5 75 56 41 344 0 19 55 108 97 97 106 95 90 65 54 67 79 98 109 100 119 104 106 47 37 24 33 76 119 139 148 139 132 144 132 143 137 135 145 150 161 167 172 169 162 165 179 198 192 190 199 206 218 225 227 228 233 230 228 228 227 224 224 224 224 224 226 227 227 231
353 351 34 68 64 78 85 84 104 75 45 31 18 16 13 15 55 88 75 50 38 35 43 42 57 97 104 99 96 90 79 72 79 68 60 68 80 122 118 87 72 104 104 110 114 123 135 136 119 120 132 135 132 132 133 145 157 165 172 178 185 191 192 192 208 217 219 221 219 229 235 237 237 241 234 233 234 232 228 225 229 228 229 227 231 229 227
3 10 18 46 74 79 90 92 83 93 87 44 23 9 20 30 54 60 56 45 42 44 53 57 72 85 97 104 104 96 89 86 88 94 79 54 43 23 40 69 74 127 113 82 95 114 123 115 106 110 115 111 122 134 134 150 163 172 179 187 190 194 203 205 209 215 216 227 236 227 223 232 235 240 240 238 239 235 230 227 229 231 226 226 230 229 230
4 28 46 66 64 65 84 94 101 91 80 51 20 17 31 37 32 42 55 63 62 52 78 86 85 86 85 101 109 107 110 108 104 108 112 106 84 56 41 45 60 115 126 118 110 101 101 96 102 118 125 121 125 137 149 161 169 184 192 191 198 203 208 209 214 216 223 229 239 237 226 227 234 237 236 243 243 241 234 238 242 237 238 238 238 238 238
18 34 45 74 93 96 78 81 88 89 96 102 61 39 31 33 31 36 72 87 87 77 81 93 94 89 94 86 89 84 84 63 52 29 102 102 95 65 58 13 81 104 131 128 114 107 96 99 121 126 130 138 147 153 160 170 178 190 190 200 206 211 214 218 224 229 229 231 236 242 243 235 229 232 232 236 237 247 248 241 243 240 240 243 237 234 234
21 11 18 79 71 70 63 90 97 109 106 96 77 54 32 17 29 30 50 87 91 64 79 101 107 110 115 113 100 104 112 98 46 10 23 9 49 72 95 123 111 120 142 147 145 144 144 152 152 151 153 161 162 174 188 189 191 191 193 201 213 214 222 228 225 232 236 234 237 239 242 244 241 234 228 231 234 237 245 243 256 254 245 243 245 243 244
80 73 50 72 77 77 84 77 88 91 89 77 68 68 8 1 16 44 34 47 77 78 69 64 74 64 44 65 96 130 121 100 78 67 45 48 42 44 77 118 101 111 119 132 119 127 107 138 150 147 156 165 173 213 208 214 214 223 220 226 225 229 231 232 232 234 236 237 238 238 241 240 245 249 246 241 244 246 250 250 252 249 245 247 253 253 252
83 86 70 59 80 70 71 82 91 80 74 86 101 99 77 28 49 39 47 74 81 82 62 41 53 50 46 68 47 24 12 101 109 99 92 106 69 76 55 87 106 115 95 85 80 74 89 103 118 166 183 194 203 226 226 232 233 234 233 232 231 234 236 240 241 243 243 244 241 239 241 237 237 236 239 239 244 246 240 243 251 255 256 254 252 244 240
19 34 32 47 84 106 109 109 109 106 110 126 108 108 145 131 100 81 74 73 77 76 72 60 52 35 23 34 48 44 57 336 23 123 132 134 129 107 113 93 105 114 113 118 120 118 154 183 201 208 208 212 226 227 228 231 229 234 236 238 243 244 242 241 247 245 244 241 241 233 238 241 245 244 246 243 245 245 243 241 245 249 252 246 248 248 244
2 0 12 15 28 81 126 125 103 121 137 136 126 131 222 212 102 78 75 86 91 91 78 61 51 52 37 49 49 55 20 49 68 92 106 111 113 105 98 98 101 100 96 112 143 215 166 249 252 241 235 234 236 237 238 238 238 233 242 241 238 245 243 235 239 236 241 243 243 241 240 245 252 247 249 252 252 253 253 247 243 245 245 249 255 255 249
23 32 18 7 1 353 354 20 85 126 135 132 137 127 121 106 103 104 110 135 120 99 88 76 61 49 46 54 62 53 39 14 69 78 90 87 80 78 78 85 87 105 140 162 225 260 266 220 229 233 235 246 248 243 242 239 242 243 239 242 242 244 252 242 238 237 236 238 245 248 249 250 249 251 251 247 246 247 247 245 244 244 236 239 241 243 244
60 55 42 35 25 9 9 8 13 30 28 68 92 111 113 115 109 104 84 45 96 117 116 106 79 30 28 52 70 71 76 76 91 85 81 85 100 103 102 104 20 355 307 299 304 296 283 274 264 261 261 263 260 257 255 246 243 248 250 245 247 246 242 247 250 250 252 245 244 249 247 244 249 249 245 241 240 241 243 243 243 243 242 243 244 244 249